Wetterdaten: aktuell Donnerstag, 19.10.2017 18:30
Datum Zeit Temp. A. Feuchte A. Luftdruck Regen Wind Richtung Richtung Taupunkt Windchill
19.10.2017 18:30 13,8 C 83 % 1015,2 hPa 0,0 mm 0,0 km/h S-SO 163 11,0 C 13,8 C
19.10.2017 18:29 13,9 C 83 % 1015,3 hPa 0,0 mm 0,0 km/h S-SO 163 11,1 C 13,9 C
19.10.2017 18:28 13,9 C 83 % 1015,2 hPa 0,0 mm 0,0 km/h S-SO 163 11,1 C 13,9 C
19.10.2017 18:27 13,9 C 83 % 1015,2 hPa 0,0 mm 0,0 km/h S-SO 163 11,1 C 13,9 C
19.10.2017 18:26 14,0 C 82 % 1015,3 hPa 0,0 mm 0,0 km/h S-SO 163 11,0 C 14,0 C
19.10.2017 18:25 14,1 C 82 % 1015,2 hPa 0,0 mm 0,0 km/h S-SO 163 11,1 C 14,1 C
19.10.2017 18:24 14,1 C 82 % 1015,2 hPa 0,0 mm 0,0 km/h S-SO 163 11,1 C 14,1 C
19.10.2017 18:23 14,1 C 82 % 1015,2 hPa 0,0 mm 0,0 km/h S-SO 163 11,1 C 14,1 C
19.10.2017 18:22 14,2 C 82 % 1015,2 hPa 0,0 mm 0,0 km/h S-SO 163 11,2 C 14,2 C
19.10.2017 18:21 14,2 C 81 % 1015,2 hPa 0,0 mm 0,0 km/h S-SO 163 11,0 C 14,2 C
19.10.2017 18:20 14,2 C 82 % 1015,2 hPa 0,0 mm 0,0 km/h S-SO 163 11,2 C 14,2 C
19.10.2017 18:19 14,3 C 82 % 1015,2 hPa 0,0 mm 0,0 km/h S-SO 163 11,3 C 14,3 C
19.10.2017 18:18 14,3 C 81 % 1015,2 hPa 0,0 mm 0,0 km/h S-SO 163 11,1 C 14,3 C
19.10.2017 18:17 14,3 C 81 % 1015,2 hPa 0,0 mm 0,0 km/h S-SO 163 11,1 C 14,3 C
19.10.2017 18:16 14,4 C 81 % 1015,2 hPa 0,0 mm 0,0 km/h S-SO 163 11,2 C 14,4 C
19.10.2017 18:15 14,4 C 81 % 1015,2 hPa 0,0 mm 0,0 km/h S-SO 163 11,2 C 14,4 C
19.10.2017 18:14 14,4 C 81 % 1015,2 hPa 0,0 mm 0,0 km/h S-SO 163 11,2 C 14,4 C
19.10.2017 18:13 14,4 C 81 % 1015,2 hPa 0,0 mm 0,0 km/h S-SO 163 11,2 C 14,4 C
19.10.2017 18:12 14,5 C 81 % 1015,2 hPa 0,0 mm 0,0 km/h S-SO 163 11,3 C 14,5 C
19.10.2017 18:11 14,5 C 81 % 1015,1 hPa 0,0 mm 0,2 km/h S-SO 163 11,3 C 14,5 C
19.10.2017 18:10 14,5 C 81 % 1015,1 hPa 0,0 mm 0,1 km/h S-SO 163 11,3 C 14,5 C
19.10.2017 18:09 14,6 C 81 % 1015,1 hPa 0,0 mm 1,7 km/h S-SO 163 11,4 C 14,6 C
19.10.2017 18:08 14,6 C 81 % 1015,1 hPa 0,0 mm 0,6 km/h S-SO 163 11,4 C 14,6 C
19.10.2017 18:07 14,6 C 81 % 1015,1 hPa 0,0 mm 0,0 km/h S-SO 163 11,4 C 14,6 C
19.10.2017 18:06 14,6 C 81 % 1015,1 hPa 0,0 mm 0,1 km/h S-SO 163 11,4 C 14,6 C
19.10.2017 18:05 14,6 C 81 % 1015,1 hPa 0,0 mm 0,6 km/h S-SO 163 11,4 C 14,6 C
19.10.2017 18:04 14,6 C 81 % 1015,1 hPa 0,0 mm 0,5 km/h S-SO 163 11,4 C 14,6 C
19.10.2017 18:03 14,7 C 80 % 1015,0 hPa 0,0 mm 0,0 km/h S-SO 163 11,3 C 14,7 C
19.10.2017 18:02 14,7 C 80 % 1015,0 hPa 0,0 mm 0,0 km/h S-SO 163 11,3 C 14,7 C
19.10.2017 18:01 14,7 C 80 % 1015,0 hPa 0,0 mm 0,0 km/h S-SO 163 11,3 C 14,7 C
19.10.2017 18:00 14,7 C 80 % 1015,0 hPa 0,0 mm 0,2 km/h S-SO 163 11,3 C 14,7 C
19.10.2017 17:59 14,8 C 79 % 1015,0 hPa 0,0 mm 2,7 km/h S-SO 163 11,2 C 14,8 C
19.10.2017 17:58 14,8 C 79 % 1014,9 hPa 0,0 mm 2,6 km/h S-SO 163 11,2 C 14,8 C
19.10.2017 17:57 14,8 C 79 % 1014,9 hPa 0,0 mm 2,4 km/h S-SO 167 11,2 C 14,8 C
19.10.2017 17:56 14,9 C 79 % 1014,9 hPa 0,0 mm 4,3 km/h S-SO 167 11,3 C 14,9 C
19.10.2017 17:55 15,0 C 78 % 1014,9 hPa 0,0 mm 4,9 km/h S-SO 161 11,2 C 15,0 C
19.10.2017 17:54 15,1 C 78 % 1014,9 hPa 0,0 mm 3,4 km/h S-SO 165 11,3 C 15,1 C
19.10.2017 17:53 15,1 C 78 % 1015,0 hPa 0,0 mm 4,3 km/h S-SO 165 11,3 C 15,1 C
19.10.2017 17:52 15,2 C 77 % 1014,9 hPa 0,0 mm 5,6 km/h S-SO 159 11,2 C 15,2 C
19.10.2017 17:51 15,3 C 77 % 1014,9 hPa 0,0 mm 4,1 km/h S-SO 159 11,3 C 15,3 C
19.10.2017 17:50 15,4 C 77 % 1015,0 hPa 0,0 mm 5,1 km/h S-SO 165 11,4 C 15,4 C
19.10.2017 17:49 15,4 C 76 % 1014,9 hPa 0,0 mm 5,5 km/h S 175 11,2 C 15,4 C
19.10.2017 17:48 15,6 C 76 % 1015,0 hPa 0,0 mm 5,3 km/h S 176 11,4 C 15,6 C
19.10.2017 17:47 15,7 C 76 % 1014,9 hPa 0,0 mm 6,0 km/h S 178 11,5 C 15,7 C
19.10.2017 17:46 15,8 C 76 % 1014,9 hPa 0,0 mm 5,2 km/h S 171 11,6 C 15,8 C
19.10.2017 17:45 15,9 C 76 % 1014,9 hPa 0,0 mm 6,1 km/h S 175 11,7 C 15,9 C
19.10.2017 17:44 15,9 C 75 % 1015,0 hPa 0,0 mm 5,5 km/h S-SO 159 11,5 C 15,9 C
19.10.2017 17:43 16,0 C 75 % 1015,0 hPa 0,0 mm 5,4 km/h S-SO 159 11,6 C 16,0 C
19.10.2017 17:42 16,1 C 75 % 1015,0 hPa 0,0 mm 5,6 km/h S-SO 155 11,7 C 16,1 C
19.10.2017 17:41 16,1 C 75 % 1014,9 hPa 0,0 mm 7,7 km/h S-SO 157 11,7 C 15,4 C
19.10.2017 17:40 16,2 C 75 % 1014,9 hPa 0,0 mm 6,0 km/h S-SO 162 11,8 C 16,2 C
19.10.2017 17:39 16,2 C 75 % 1014,9 hPa 0,0 mm 7,1 km/h S-SO 160 11,8 C 15,8 C
19.10.2017 17:38 16,3 C 75 % 1014,9 hPa 0,0 mm 7,9 km/h S-SO 159 11,9 C 15,5 C
19.10.2017 17:37 16,3 C 74 % 1014,9 hPa 0,0 mm 7,0 km/h S-SO 150 11,7 C 16,0 C
19.10.2017 17:36 16,3 C 74 % 1014,9 hPa 0,0 mm 9,1 km/h S-SO 159 11,7 C 14,9 C
19.10.2017 17:35 16,4 C 74 % 1014,9 hPa 0,0 mm 7,3 km/h S-SO 152 11,8 C 15,9 C
19.10.2017 17:34 16,4 C 74 % 1014,9 hPa 0,0 mm 9,4 km/h S-SO 149 11,8 C 14,9 C
19.10.2017 17:33 16,5 C 74 % 1014,9 hPa 0,0 mm 7,4 km/h S-SO 149 11,8 C 16,0 C
19.10.2017 17:32 16,6 C 74 % 1014,9 hPa 0,0 mm 6,4 km/h SO 142 11,9 C 16,6 C
19.10.2017 17:31 16,6 C 73 % 1014,9 hPa 0,0 mm 6,4 km/h S 185 11,7 C 16,6 C
19.10.2017 17:30 16,7 C 73 % 1014,9 hPa 0,0 mm 7,4 km/h S-SO 148 11,8 C 16,2 C
19.10.2017 17:29 16,7 C 73 % 1014,9 hPa 0,0 mm 7,6 km/h S-SO 152 11,8 C 16,1 C
19.10.2017 17:28 16,8 C 73 % 1014,9 hPa 0,0 mm 7,3 km/h S-SO 154 11,9 C 16,3 C
19.10.2017 17:27 16,8 C 73 % 1014,9 hPa 0,0 mm 5,4 km/h S-SO 162 11,9 C 16,8 C
19.10.2017 17:26 16,8 C 72 % 1014,9 hPa 0,0 mm 8,2 km/h S 170 11,7 C 15,9 C
19.10.2017 17:25 16,9 C 72 % 1014,9 hPa 0,0 mm 7,2 km/h S-SO 147 11,8 C 16,5 C
19.10.2017 17:24 16,9 C 72 % 1014,9 hPa 0,0 mm 6,5 km/h S 188 11,8 C 16,9 C
19.10.2017 17:23 17,1 C 71 % 1014,9 hPa 0,0 mm 3,2 km/h S 180 11,8 C 17,1 C
19.10.2017 17:22 17,1 C 71 % 1014,8 hPa 0,0 mm 5,1 km/h S-SO 164 11,8 C 17,1 C
19.10.2017 17:21 17,2 C 71 % 1014,8 hPa 0,0 mm 5,8 km/h S-SO 161 11,9 C 17,2 C
19.10.2017 17:20 17,2 C 71 % 1014,9 hPa 0,0 mm 7,4 km/h S-SO 167 11,9 C 16,7 C
19.10.2017 17:19 17,3 C 71 % 1014,9 hPa 0,0 mm 8,1 km/h S-SO 153 12,0 C 16,5 C
19.10.2017 17:18 17,3 C 71 % 1014,8 hPa 0,0 mm 6,0 km/h S-SO 155 12,0 C 17,3 C
19.10.2017 17:17 17,3 C 70 % 1014,8 hPa 0,0 mm 6,5 km/h S-SO 158 11,8 C 17,3 C
19.10.2017 17:16 17,4 C 70 % 1014,8 hPa 0,0 mm 7,2 km/h S-SO 152 11,9 C 17,0 C
19.10.2017 17:15 17,4 C 70 % 1014,8 hPa 0,0 mm 7,3 km/h S-SO 151 11,9 C 17,0 C
19.10.2017 17:14 17,5 C 70 % 1014,8 hPa 0,0 mm 5,6 km/h S-SO 148 12,0 C 17,5 C
19.10.2017 17:13 17,6 C 70 % 1014,8 hPa 0,0 mm 4,5 km/h SO 145 12,1 C 17,6 C
19.10.2017 17:12 17,6 C 70 % 1014,8 hPa 0,0 mm 5,7 km/h S-SO 153 12,1 C 17,6 C
19.10.2017 17:11 17,6 C 70 % 1014,8 hPa 0,0 mm 5,8 km/h S-SO 149 12,1 C 17,6 C
19.10.2017 17:10 17,6 C 69 % 1014,8 hPa 0,0 mm 5,0 km/h S-SO 150 11,8 C 17,6 C
19.10.2017 17:09 17,7 C 69 % 1014,7 hPa 0,0 mm 3,8 km/h S-SO 150 11,9 C 17,7 C
19.10.2017 17:08 17,7 C 69 % 1014,8 hPa 0,0 mm 4,6 km/h S-SO 150 11,9 C 17,7 C
19.10.2017 17:07 17,8 C 69 % 1014,7 hPa 0,0 mm 4,8 km/h S-SO 156 12,0 C 17,8 C
19.10.2017 17:06 17,8 C 69 % 1014,7 hPa 0,0 mm 5,0 km/h S-SO 159 12,0 C 17,8 C
19.10.2017 17:05 17,8 C 69 % 1014,7 hPa 0,0 mm 5,1 km/h S-SO 159 12,0 C 17,8 C
19.10.2017 17:04 17,8 C 69 % 1014,7 hPa 0,0 mm 4,9 km/h S-SO 165 12,0 C 17,8 C
19.10.2017 17:03 17,9 C 69 % 1014,7 hPa 0,0 mm 6,0 km/h S-SO 153 12,1 C 17,9 C
19.10.2017 17:02 17,9 C 69 % 1014,7 hPa 0,0 mm 6,3 km/h S-SO 153 12,1 C 17,9 C
19.10.2017 17:01 17,9 C 69 % 1014,7 hPa 0,0 mm 5,3 km/h S-SO 147 12,1 C 17,9 C
19.10.2017 17:00 17,9 C 69 % 1014,8 hPa 0,0 mm 4,8 km/h S-SO 168 12,1 C 17,9 C
19.10.2017 16:59 18,0 C 69 % 1014,7 hPa 0,0 mm 5,4 km/h S-SO 155 12,2 C 18,0 C
19.10.2017 16:58 18,1 C 69 % 1014,7 hPa 0,0 mm 4,5 km/h S 171 12,3 C 18,1 C
19.10.2017 16:57 18,1 C 69 % 1014,7 hPa 0,0 mm 5,6 km/h S-SO 165 12,3 C 18,1 C
19.10.2017 16:56 18,1 C 69 % 1014,7 hPa 0,0 mm 6,0 km/h S-SO 152 12,3 C 18,1 C
19.10.2017 16:55 18,1 C 69 % 1014,7 hPa 0,0 mm 4,0 km/h SO 137 12,3 C 18,1 C
19.10.2017 16:54 18,1 C 69 % 1014,7 hPa 0,0 mm 3,6 km/h S-SO 165 12,3 C 18,1 C
19.10.2017 16:53 18,2 C 68 % 1014,7 hPa 0,0 mm 4,2 km/h S-SO 167 12,2 C 18,2 C
19.10.2017 16:52 18,2 C 68 % 1014,7 hPa 0,0 mm 4,5 km/h S 176 12,2 C 18,2 C
19.10.2017 16:51 18,2 C 68 % 1014,7 hPa 0,0 mm 4,8 km/h S 188 12,2 C 18,2 C
19.10.2017 16:50 18,2 C 68 % 1014,7 hPa 0,0 mm 5,8 km/h S 178 12,2 C 18,2 C
19.10.2017 16:49 18,3 C 68 % 1014,7 hPa 0,0 mm 4,8 km/h S 174 12,3 C 18,3 C
19.10.2017 16:48 18,3 C 68 % 1014,7 hPa 0,0 mm 5,9 km/h S 178 12,3 C 18,3 C
19.10.2017 16:47 18,3 C 68 % 1014,7 hPa 0,0 mm 6,1 km/h S 188 12,3 C 18,3 C
19.10.2017 16:46 18,3 C 68 % 1014,7 hPa 0,0 mm 6,7 km/h S-SO 164 12,3 C 18,2 C
19.10.2017 16:45 18,4 C 68 % 1014,7 hPa 0,0 mm 6,8 km/h S-SO 152 12,4 C 18,2 C
19.10.2017 16:44 18,4 C 68 % 1014,7 hPa 0,0 mm 6,6 km/h S-SO 148 12,4 C 18,3 C
19.10.2017 16:43 18,4 C 67 % 1014,6 hPa 0,0 mm 5,1 km/h S-SO 163 12,2 C 18,4 C
19.10.2017 16:42 18,4 C 68 % 1014,7 hPa 0,0 mm 5,0 km/h S 169 12,4 C 18,4 C
19.10.2017 16:41 18,4 C 68 % 1014,7 hPa 0,0 mm 7,3 km/h S-SO 150 12,4 C 18,0 C
19.10.2017 16:40 18,4 C 67 % 1014,7 hPa 0,0 mm 5,6 km/h S-SO 160 12,2 C 18,4 C
19.10.2017 16:39 18,4 C 68 % 1014,7 hPa 0,0 mm 6,4 km/h S-SO 159 12,4 C 18,4 C
19.10.2017 16:38 18,4 C 68 % 1014,7 hPa 0,0 mm 5,7 km/h SO 142 12,4 C 18,4 C
19.10.2017 16:37 18,4 C 67 % 1014,7 hPa 0,0 mm 6,8 km/h S-SO 156 12,2 C 18,2 C
19.10.2017 16:36 18,4 C 67 % 1014,6 hPa 0,0 mm 7,5 km/h S-SO 155 12,2 C 17,9 C
19.10.2017 16:35 18,4 C 67 % 1014,6 hPa 0,0 mm 3,7 km/h S-SO 155 12,2 C 18,4 C
19.10.2017 16:34 18,4 C 68 % 1014,7 hPa 0,0 mm 5,4 km/h S-SO 147 12,4 C 18,4 C
19.10.2017 16:33 18,4 C 67 % 1014,7 hPa 0,0 mm 6,0 km/h S-SO 150 12,2 C 18,4 C
19.10.2017 16:32 18,5 C 67 % 1014,7 hPa 0,0 mm 6,7 km/h S-SO 157 12,3 C 18,4 C
19.10.2017 16:31 18,5 C 67 % 1014,7 hPa 0,0 mm 7,7 km/h S-SO 149 12,3 C 17,9 C
19.10.2017 16:30 18,5 C 67 % 1014,7 hPa 0,0 mm 6,6 km/h S-SO 160 12,3 C 18,4 C
19.10.2017 16:29 18,6 C 67 % 1014,7 hPa 0,0 mm 6,4 km/h S-SO 148 12,3 C 18,6 C
19.10.2017 16:28 18,6 C 67 % 1014,7 hPa 0,0 mm 8,0 km/h S-SO 156 12,3 C 17,9 C
19.10.2017 16:27 18,6 C 67 % 1014,7 hPa 0,0 mm 6,5 km/h S-SO 153 12,3 C 18,6 C
19.10.2017 16:26 18,6 C 67 % 1014,7 hPa 0,0 mm 8,0 km/h S-SO 162 12,3 C 17,9 C
19.10.2017 16:25 18,6 C 67 % 1014,7 hPa 0,0 mm 6,1 km/h S-SO 157 12,3 C 18,6 C
19.10.2017 16:24 18,6 C 67 % 1014,8 hPa 0,0 mm 5,1 km/h S-SO 153 12,3 C 18,6 C
19.10.2017 16:23 18,6 C 67 % 1014,8 hPa 0,0 mm 6,7 km/h S-SO 147 12,3 C 18,5 C
19.10.2017 16:22 18,7 C 67 % 1014,7 hPa 0,0 mm 8,9 km/h S 183 12,4 C 17,6 C
19.10.2017 16:21 18,7 C 67 % 1014,8 hPa 0,0 mm 4,4 km/h S-SO 151 12,4 C 18,7 C
19.10.2017 16:20 18,8 C 66 % 1014,8 hPa 0,0 mm 3,8 km/h S 182 12,3 C 18,8 C
19.10.2017 16:19 18,8 C 66 % 1014,7 hPa 0,0 mm 3,8 km/h SO 146 12,3 C 18,8 C
19.10.2017 16:18 18,8 C 66 % 1014,8 hPa 0,0 mm 7,1 km/h S-SO 163 12,3 C 18,5 C
19.10.2017 16:17 18,8 C 66 % 1014,7 hPa 0,0 mm 4,6 km/h S-SO 161 12,3 C 18,8 C
19.10.2017 16:16 18,9 C 66 % 1014,8 hPa 0,0 mm 5,8 km/h S 169 12,4 C 18,9 C
19.10.2017 16:15 18,9 C 66 % 1014,7 hPa 0,0 mm 7,2 km/h S-SW 196 12,4 C 18,5 C
19.10.2017 16:14 18,8 C 66 % 1014,7 hPa 0,0 mm 6,4 km/h S 191 12,3 C 18,8 C
19.10.2017 16:13 18,8 C 66 % 1014,8 hPa 0,0 mm 7,1 km/h SO 144 12,3 C 18,5 C
19.10.2017 16:12 18,8 C 67 % 1014,7 hPa 0,0 mm 6,6 km/h SO 146 12,5 C 18,7 C
19.10.2017 16:11 18,8 C 66 % 1014,8 hPa 0,0 mm 5,5 km/h S-SO 154 12,3 C 18,8 C
19.10.2017 16:10 18,8 C 66 % 1014,7 hPa 0,0 mm 7,1 km/h SO 142 12,3 C 18,5 C
19.10.2017 16:09 18,7 C 67 % 1014,8 hPa 0,0 mm 6,7 km/h SO 146 12,4 C 18,6 C
19.10.2017 16:08 18,7 C 67 % 1014,8 hPa 0,0 mm 5,0 km/h S-SO 153 12,4 C 18,7 C
19.10.2017 16:07 18,8 C 65 % 1014,8 hPa 0,0 mm 7,6 km/h SO 146 12,1 C 18,3 C
19.10.2017 16:06 18,8 C 65 % 1014,8 hPa 0,0 mm 6,1 km/h SO 136 12,1 C 18,8 C
19.10.2017 16:05 18,8 C 66 % 1014,9 hPa 0,0 mm 5,7 km/h SO 124 12,3 C 18,8 C
19.10.2017 16:04 18,8 C 66 % 1014,9 hPa 0,0 mm 7,4 km/h SO 137 12,3 C 18,4 C
19.10.2017 16:03 18,8 C 66 % 1014,9 hPa 0,0 mm 7,8 km/h SO 144 12,3 C 18,2 C
19.10.2017 16:02 18,8 C 66 % 1014,9 hPa 0,0 mm 8,0 km/h S-SO 147 12,3 C 18,1 C
19.10.2017 16:01 18,8 C 66 % 1014,9 hPa 0,0 mm 9,1 km/h SO 140 12,3 C 17,6 C
19.10.2017 16:00 18,8 C 66 % 1014,9 hPa 0,0 mm 8,3 km/h S-SO 148 12,3 C 18,0 C
19.10.2017 15:59 18,8 C 66 % 1014,9 hPa 0,0 mm 8,0 km/h S-SO 156 12,3 C 18,1 C
19.10.2017 15:58 18,8 C 66 % 1014,9 hPa 0,0 mm 9,3 km/h S-SO 151 12,3 C 17,6 C
19.10.2017 15:57 18,9 C 65 % 1014,9 hPa 0,0 mm 8,6 km/h S-SO 153 12,2 C 18,0 C
19.10.2017 15:56 18,9 C 66 % 1014,9 hPa 0,0 mm 7,6 km/h S-SO 148 12,4 C 18,4 C
19.10.2017 15:55 18,9 C 66 % 1014,9 hPa 0,0 mm 6,0 km/h S-SO 150 12,4 C 18,9 C
19.10.2017 15:54 18,9 C 66 % 1014,9 hPa 0,0 mm 7,7 km/h S-SO 151 12,4 C 18,3 C
19.10.2017 15:53 18,9 C 65 % 1014,9 hPa 0,0 mm 7,2 km/h